CFG6KJ LPPS-LPMA

Flight info

Callsign CFG6KJ
Flight time 0h 15m
Altitude 9000
Route PILIM
Aircraft A321/M-SDE3FGHIRWY/LB1

Departure

Time 2026-04-21 18:05
Airport Porto Santo Airport (LPPS)

Arrival

Time 2026-04-21 18:20
Airport Cristiano Ronaldo International Airport (LPMA)
Time Latitude Longitude Altitude Speed Heading
2026-04-21 17:40 33.06994 -16.34627 249 ft 0 kts 311°
2026-04-21 18:00 33.06996 -16.34633 249 ft 3 kts 293°
2026-04-21 18:00 33.06992 -16.34684 249 ft 7 kts 258°
2026-04-21 18:01 33.06978 -16.34733 249 ft 6 kts 248°
2026-04-21 18:01 33.06968 -16.34780 249 ft 6 kts 265°
2026-04-21 18:01 33.06965 -16.34826 249 ft 5 kts 266°
2026-04-21 18:01 33.06963 -16.34868 249 ft 5 kts 267°
2026-04-21 18:02 33.06962 -16.34893 249 ft 4 kts 267°
2026-04-21 18:02 33.06948 -16.34955 251 ft 9 kts 232°
2026-04-21 18:02 33.06868 -16.34975 251 ft 16 kts 179°
2026-04-21 18:02 33.06678 -16.34966 245 ft 40 kts 177°
2026-04-21 18:03 33.06358 -16.34953 244 ft 48 kts 180°
2026-04-21 18:03 33.06140 -16.34924 246 ft 21 kts 151°
2026-04-21 18:03 33.06050 -16.34836 246 ft 14 kts 164°
2026-04-21 18:03 33.05997 -16.34876 247 ft 9 kts 259°
2026-04-21 18:04 33.06015 -16.34936 248 ft 7 kts 320°
2026-04-21 18:04 33.06065 -16.34944 247 ft 8 kts 356°
2026-04-21 18:04 33.06248 -16.34953 243 ft 60 kts 358°
2026-04-21 18:04 33.06896 -16.34988 252 ft 122 kts 358°
2026-04-21 18:05 33.07890 -16.35018 457 ft 153 kts 357°
2026-04-21 18:05 33.08976 -16.35017 1043 ft 159 kts 359°
2026-04-21 18:05 33.10098 -16.35024 1726 ft 163 kts 356°
2026-04-21 18:05 33.11288 -16.35063 2083 ft 181 kts 356°
2026-04-21 18:06 33.12628 -16.35112 2311 ft 205 kts 356°
2026-04-21 18:06 33.14146 -16.35164 2646 ft 231 kts 356°
2026-04-21 18:06 33.15825 -16.35246 3244 ft 247 kts 350°
2026-04-21 18:06 33.17361 -16.36064 3997 ft 250 kts 314°
2026-04-21 18:07 33.18203 -16.37851 4793 ft 253 kts 278°
2026-04-21 18:07 33.17980 -16.39917 5575 ft 258 kts 247°
2026-04-21 18:07 33.17044 -16.41765 5893 ft 262 kts 236°
2026-04-21 18:07 33.15969 -16.43526 5966 ft 262 kts 236°
2026-04-21 18:08 33.14894 -16.45281 5972 ft 262 kts 236°
2026-04-21 18:08 33.13819 -16.47033 5976 ft 262 kts 236°
2026-04-21 18:08 33.12767 -16.48805 5976 ft 261 kts 240°
2026-04-21 18:08 33.11861 -16.50681 5972 ft 262 kts 239°
2026-04-21 18:09 33.10674 -16.52335 5975 ft 265 kts 222°
2026-04-21 18:09 33.09077 -16.53438 5975 ft 269 kts 201°
2026-04-21 18:09 33.07861 -16.53756 5978 ft 272 kts 189°
2026-04-21 18:09 33.05319 -16.54031 5510 ft 274 kts 188°
2026-04-21 18:10 33.04069 -16.54180 5370 ft 268 kts 190°
2026-04-21 18:10 33.02253 -16.54600 5267 ft 265 kts 197°
2026-04-21 18:10 33.00470 -16.55154 5143 ft 264 kts 198°
2026-04-21 18:10 32.98704 -16.55717 5031 ft 263 kts 197°
2026-04-21 18:11 32.96933 -16.56249 5000 ft 262 kts 196°
2026-04-21 18:11 32.95156 -16.56745 5006 ft 262 kts 195°
2026-04-21 18:11 32.93375 -16.57211 5010 ft 263 kts 194°
2026-04-21 18:11 32.91599 -16.57656 5003 ft 254 kts 194°
2026-04-21 18:12 32.89909 -16.58061 5006 ft 244 kts 194°
2026-04-21 18:12 32.88252 -16.58451 5007 ft 242 kts 194°
2026-04-21 18:12 32.86617 -16.58880 4941 ft 237 kts 200°
2026-04-21 18:12 32.85154 -16.59644 4798 ft 223 kts 213°
2026-04-21 18:13 32.83931 -16.60704 4676 ft 214 kts 224°
2026-04-21 18:13 32.82828 -16.61889 4543 ft 214 kts 223°
2026-04-21 18:13 32.81612 -16.62924 4409 ft 215 kts 212°
2026-04-21 18:13 32.80255 -16.63687 4287 ft 217 kts 202°
2026-04-21 18:14 32.77571 -16.64768 4023 ft 198 kts 201°
2026-04-21 18:14 32.76263 -16.65296 3896 ft 198 kts 201°
2026-04-21 18:14 32.74957 -16.65828 3765 ft 199 kts 202°
2026-04-21 18:15 32.73647 -16.66361 3636 ft 199 kts 202°
2026-04-21 18:15 32.72362 -16.66883 3534 ft 192 kts 201°
2026-04-21 18:15 32.71105 -16.67394 3440 ft 190 kts 200°
2026-04-21 18:15 32.69858 -16.67899 3298 ft 184 kts 201°
2026-04-21 18:16 32.68699 -16.68363 3173 ft 166 kts 201°
2026-04-21 18:16 32.67655 -16.68783 3022 ft 153 kts 201°
2026-04-21 18:16 32.66666 -16.69184 2905 ft 148 kts 201°
2026-04-21 18:16 32.65698 -16.69577 2777 ft 146 kts 201°
2026-04-21 18:17 32.64792 -16.70098 2618 ft 145 kts 221°
2026-04-21 18:17 32.64256 -16.71059 2393 ft 139 kts 255°
2026-04-21 18:17 32.64051 -16.72193 2161 ft 140 kts 263°
2026-04-21 18:17 32.63902 -16.73336 2042 ft 140 kts 265°
2026-04-21 18:18 32.63768 -16.74480 2005 ft 140 kts 265°
2026-04-21 18:18 32.63658 -16.75627 2007 ft 139 kts 271°
2026-04-21 18:18 32.63756 -16.76760 1998 ft 138 kts 287°
2026-04-21 18:18 32.64144 -16.77791 1816 ft 137 kts 306°
2026-04-21 18:19 32.64774 -16.78621 1609 ft 135 kts 320°
2026-04-21 18:19 32.65561 -16.79220 1339 ft 134 kts 335°
2026-04-21 18:19 32.66454 -16.79506 1053 ft 134 kts 352°
2026-04-21 18:19 32.67384 -16.79556 733 ft 133 kts
2026-04-21 18:20 32.68257 -16.79207 388 ft 139 kts 36°
2026-04-21 18:20 32.68915 -16.78448 204 ft 135 kts 40°
2026-04-21 18:20 32.69484 -16.77789 173 ft 122 kts 43°
2026-04-21 18:20 32.69883 -16.77352 192 ft 44 kts 45°
2026-04-21 18:21 32.69965 -16.77247 196 ft 5 kts 58°
2026-04-21 18:21 32.69972 -16.77215 190 ft 3 kts 90°
2026-04-21 18:21 32.69962 -16.77190 190 ft 6 kts 129°
2026-04-21 18:21 32.69893 -16.77176 186 ft 13 kts 181°
2026-04-21 18:22 32.69800 -16.77221 181 ft 16 kts 224°
2026-04-21 18:22 32.69707 -16.77335 171 ft 22 kts 226°
2026-04-21 18:22 32.69621 -16.77439 169 ft 10 kts 225°
2026-04-21 18:22 32.69591 -16.77475 169 ft 4 kts 225°
2026-04-21 18:23 32.69575 -16.77489 169 ft 2 kts 207°
2026-04-21 18:23 32.69567 -16.77490 169 ft 0 kts 184°
2026-04-21 18:23 32.69564 -16.77490 169 ft 0 kts 184°
2026-04-21 18:24 32.69562 -16.77490 169 ft 0 kts 184°
2026-04-21 18:24 32.69558 -16.77491 169 ft 1 kts 184°
2026-04-21 18:24 32.69555 -16.77488 169 ft 1 kts 156°
2026-04-21 18:24 32.69543 -16.77470 169 ft 4 kts 131°
2026-04-21 18:25 32.69523 -16.77448 169 ft 3 kts 136°
2026-04-21 18:25 32.69510 -16.77433 169 ft 0 kts 137°